Home > Weather > Birmingham > Past weeks

Flag for USA Past Weather in Birmingham, Alabama, USA — Yesterday and Last 2 Weeks

Now
78 °F

Passing clouds.


Feels Like: 81 °F
Forecast: 78 / 93 °F
Wind: No wind

Location: Birmingham International Airport

Current Time: Jul 24, 2016 at 1:57:59 AM

Latest Report: Jul 24, 2016 at 12:53 AM


Visibility: 10 mi

Pressure: 30.00 "Hg

Humidity: 84%

Dew Point: 73 °F

Location of BirminghamLocation

Past Weather in Birmingham — Graph

°F

Birmingham Temperature Yesterday

Maximum temperature yesterday: 92 °F (at 11:53 AM)
Minimum temperature yesterday: 77 °F (at 4:53 AM)
Average temperature yesterday: 82 °F

High & Low Weather Summary for the Past Weeks

 TemperatureHumidityPressure
High97 °F (Jul 21, 2:53 PM)97% (Jul 9, 8:53 PM)30.29 "Hg (Jul 9, 8:53 PM)
Low70 °F (Jul 15, 2:53 AM)39% (Jul 20, 3:53 PM)29.96 "Hg (Jul 9, 3:53 PM)
Average81 °F75%30.09 "Hg
* Reported Jul 8 11:53 PM — Jul 23 11:53 PM, Birmingham, Weather by CustomWeather, © 2016

Note: Actual official high and low records may vary slightly from our data, if they occured in-between our weather recording intervals... More about our weather records

Advertising

Birmingham Weather History for the Previous 24 Hours

Scroll right to see more
 ConditionsComfort  
Time TempWeatherWind HumidityBarometerVisibility
11:53 PM
Sat, Jul 23
79 °FPassing clouds.No wind84%29.99 "Hg10 mi
10:53 PM78 °FPassing clouds.No wind87%29.99 "Hg10 mi
9:53 PM79 °FPassing clouds.No wind84%30.00 "Hg10 mi
8:53 PM79 °FPassing clouds.3 mph88%29.99 "Hg10 mi
7:53 PM81 °FPartly sunny.3 mph85%29.97 "Hg10 mi
6:53 PM81 °FPartly sunny.3 mph91%29.98 "Hg9 mi
5:53 PM82 °FBroken clouds.No wind85%29.96 "Hg10 mi
4:53 PM80 °FThundershowers. Broken clouds.3 mph81%29.96 "Hg9 mi
3:53 PM79 °FThunderstorms. Cloudy.8 mph84%29.97 "Hg10 mi
2:53 PM82 °FLight rain. Cloudy.3 mph85%29.96 "Hg8 mi
1:53 PM92 °FMostly cloudy.9 mph52%29.98 "Hg10 mi
12:53 PM91 °FPartly sunny.No wind54%29.99 "Hg10 mi
11:53 AM92 °FScattered clouds.7 mph56%30.01 "Hg10 mi
10:53 AM88 °FBroken clouds.6 mph61%30.02 "Hg10 mi
9:53 AM88 °FScattered clouds.6 mph63%30.02 "Hg10 mi
8:53 AM84 °FPartly sunny.No wind74%30.02 "Hg9 mi
7:53 AM81 °FHigh level clouds.No wind79%30.03 "Hg9 mi
6:53 AM78 °FHigh level clouds.3 mph87%30.02 "Hg9 mi
5:53 AM77 °FPassing clouds.No wind88%30.01 "Hg10 mi
4:53 AM77 °FPassing clouds.No wind88%30.01 "Hg10 mi
3:53 AM78 °FClear.No wind84%30.00 "Hg10 mi
2:53 AM79 °FPassing clouds.No wind82%30.00 "Hg10 mi
1:53 AM79 °FPassing clouds.No wind82%30.00 "Hg10 mi
Weather by CustomWeather, © 2016

See weather overviewHow to use our weather pages